Vorticity
nan nan nan nan nan nan nan nan nan nan nan nan nan nan nan nan nan nan nan nan nan nan nan nan nan nan nan nan nan nan nan nan nan nan nan nan nan nan nan nan nan nan nan
nan 12 8 6 6 5 5 4 5 5 5 4 5 5 5 5 4 4 4 4 4 5 5 4 5 5 6 6 6 5 4 3 3 4 6 5 4 10 10 4 5 7 nan
nan 8 7 7 6 5 4 4 5 6 5 5 5 5 5 4 4 4 5 4 4 4 4 5 5 5 5 5 6 6 5 3 4 4 3 3 6 10 10 6 5 6 nan
nan 5 7 9 6 4 4 4 5 5 4 5 5 5 5 4 5 4 4 4 4 4 4 5 5 5 6 5 5 6 8 8 7 4 1 6 8 8 7 5 5 6 nan
nan 8 10 7 6 5 4 4 5 4 4 4 5 5 5 4 4 4 5 5 4 4 5 5 6 5 5 5 5 7 10 12 14 11 5 5 8 10 6 6 5 5 nan
nan 8 10 6 4 4 4 4 4 4 4 4 4 4 4 5 4 4 4 4 3 4 5 6 6 6 5 6 6 7 8 10 8 8 10 8 7 7 7 7 5 4 nan
nan 7 9 7 4 5 5 4 4 4 4 4 4 5 4 4 4 4 5 4 3 4 5 6 6 6 6 5 6 10 15 8 2 5 7 7 9 9 6 5 6 5 nan
nan 6 9 7 4 5 5 4 4 3 4 5 4 4 4 4 3 3 3 4 4 4 5 7 6 6 6 7 8 13 11 5 4 5 5 7 10 9 6 5 5 5 nan
nan 5 7 8 8 5 3 5 4 4 4 4 4 3 4 3 3 3 3 3 4 5 5 7 6 6 7 7 12 11 6 -1 1 6 6 8 10 7 5 6 6 5 nan
nan 5 5 6 7 6 10 8 4 5 4 4 4 3 4 5 3 3 3 3 4 5 4 6 6 6 6 8 11 9 1 -0 4 6 7 9 11 8 6 5 5 6 nan
nan 5 5 6 6 7 9 9 9 6 5 5 5 4 3 4 6 7 6 5 5 6 5 5 6 5 8 11 4 5 3 1 5 6 10 11 10 6 5 5 5 6 nan
nan 5 5 5 6 6 5 6 7 6 6 7 7 7 7 7 8 9 9 10 8 6 6 6 6 6 8 10 9 2 6 7 6 7 8 10 12 7 6 6 5 6 nan
nan 6 6 5 6 5 4 5 6 7 7 8 8 8 6 6 8 8 8 10 10 8 7 7 8 7 8 7 9 12 10 6 6 9 10 10 8 8 7 6 6 5 nan
nan 7 6 6 5 3 5 7 6 6 7 7 8 9 6 7 8 7 7 7 7 9 8 7 7 7 8 7 8 12 10 6 5 8 12 9 5 7 9 8 6 6 nan
nan 7 6 5 6 5 4 5 7 8 7 7 8 8 7 7 8 7 8 8 7 8 9 9 7 8 6 7 7 8 8 9 6 7 13 12 7 9 8 9 9 7 nan
nan 7 6 5 6 5 5 6 6 7 7 7 7 9 8 7 8 8 8 7 8 9 10 8 8 7 7 7 7 9 10 10 10 6 8 13 13 8 7 10 11 9 nan
nan 9 7 5 5 7 6 5 7 8 9 8 10 10 8 7 7 7 6 7 10 11 8 6 7 7 8 9 8 8 11 10 12 8 7 8 11 14 11 8 8 9 nan
nan 8 6 7 7 5 7 5 7 9 10 10 10 9 8 7 7 6 7 7 8 9 7 7 6 7 7 8 8 9 10 13 9 8 10 9 8 10 13 10 9 8 nan
nan 7 6 7 7 4 6 7 8 8 6 8 9 10 9 8 7 7 6 7 8 7 6 7 8 7 6 7 7 8 8 13 10 8 13 11 9 8 9 11 13 10 nan
nan 8 6 7 7 5 5 6 7 7 7 9 9 8 9 8 7 6 7 9 8 7 6 8 8 8 8 7 8 7 10 10 11 11 7 8 12 13 10 9 9 12 nan
nan 8 7 5 5 3 5 7 8 8 8 9 10 9 8 8 8 7 7 8 8 8 8 7 7 7 7 8 9 9 10 8 10 10 6 9 10 10 10 9 8 9 nan
nan 7 7 6 5 4 5 6 7 9 9 9 10 11 9 8 8 9 8 7 7 8 9 7 7 8 9 9 8 7 7 7 8 7 9 10 9 8 8 8 8 8 nan
nan 9 7 8 6 5 4 3 5 7 9 9 9 11 12 10 8 8 8 9 8 8 8 8 8 7 7 8 10 8 8 10 6 7 8 9 7 6 8 8 8 7 nan
nan 8 7 9 9 7 6 5 4 4 5 6 8 9 10 11 9 8 8 9 8 8 9 8 7 8 8 8 6 7 10 12 7 7 7 7 9 10 6 6 9 8 nan
nan 8 8 7 8 10 8 5 4 5 6 7 9 10 10 9 9 8 8 9 7 9 10 8 7 7 7 9 9 7 7 7 9 11 8 7 10 8 9 9 8 8 nan
nan nan nan nan nan nan nan nan nan nan nan nan nan nan nan nan nan nan nan nan nan nan nan nan nan nan nan nan nan nan nan nan nan nan nan nan nan nan nan nan nan nan nan
CAPE
16 76 347 433 559 1073 1820 2123 2502 2997 3087 3079 2996 2794 2496 2245 2434 2388 2412 1977 1989 1851 1705 1701 1679 1709 1738 1490 1330 1679 1416 1523 1205 1152 650 387 984 988 1139 1452 1504 624 500
18 101 689 684 1059 1693 2084 2506 2770 2962 2880 2954 2906 2554 2147 1952 2038 2078 2095 1929 1837 1725 1709 1713 1669 1689 1615 1551 1513 1634 1527 1409 1542 1211 564 429 882 1058 1111 1534 1220 433 1103
38 211 517 981 1416 1756 2424 2641 2583 2636 2416 2897 2869 2319 2008 2020 2090 2027 1901 1809 1739 1603 1615 1750 1823 1694 1664 1570 1444 1362 1166 1091 1210 831 675 480 597 1117 1517 1199 818 1100 1320
143 244 533 1147 1502 2020 2247 2558 2655 2299 2068 2778 2556 2283 1982 2079 2038 1853 1791 1666 1546 1583 1619 1625 1683 1748 1684 1614 1540 1360 1229 1078 1036 1112 636 617 270 1166 1247 1393 1001 933 1148
120 377 696 1434 1933 2067 2157 2420 2501 2318 1879 2155 2047 1805 1795 1857 1783 1621 1525 1485 1586 1667 1730 1703 1625 1637 1725 1625 1549 1355 1139 1390 1284 1345 853 181 374 1356 1387 1316 810 1349 1432
153 483 1289 1560 1401 1931 1946 2070 1776 1790 1711 2017 2273 1869 1758 1800 1572 1386 1392 1424 1578 1806 1843 1643 1622 1578 1622 1651 1438 1394 1649 1306 649 247 37 696 601 1186 1072 1439 1419 1330 1311
321 662 1084 1983 2069 1949 1950 1747 1902 1647 1603 2080 2210 1783 1715 1732 1428 1323 1290 1355 1487 1668 1847 1466 1500 1443 1552 1610 1479 1226 1680 1537 385 316 477 549 975 1858 1723 1435 1293 1265 624
665 1048 1319 1731 2103 2105 1689 1653 1658 1488 1679 2148 2108 1914 1762 1760 1481 1285 1276 1293 1391 1635 1728 1634 1401 1552 1443 1409 1435 1971 1837 1207 677 423 877 435 1609 1902 1512 1470 1143 1135 641
850 1075 1282 1309 1178 1671 2226 1813 1689 1481 1645 1940 1936 2070 1940 1658 1537 1206 1215 1299 1419 1537 1550 1619 1387 1444 1459 1415 1816 1796 1018 224 95 646 929 250 1901 1363 1210 1208 1360 1411 908
752 890 1031 1167 1347 1695 2029 1995 1909 1697 1725 1867 1964 1861 1789 1769 1587 1460 1599 1679 1481 1370 1329 1436 1599 1641 1514 1444 1540 1578 939 487 115 185 464 447 1145 590 701 1411 1312 1410 1175
511 835 1028 1070 1213 1434 1427 1591 2045 1826 1816 1885 1840 1867 2099 1259 1149 1612 1713 1789 2075 1521 1481 1449 1741 1858 1806 1772 490 1131 1595 0 0 119 632 1067 1089 1423 1222 786 1420 939 1244
586 670 974 1006 1124 1098 1401 1169 1257 1263 1379 1227 1318 1150 1446 988 717 1351 1689 2095 1773 1634 1752 1772 1901 2107 1627 926 1182 2028 246 0 2 0 87 1157 1595 1681 1329 1696 1313 1335 1421
633 770 824 901 966 971 1036 980 1017 931 789 537 509 611 695 802 642 1011 554 1132 1024 1466 740 1063 1398 1004 1149 985 368 176 432 6 73 235 10 933 1697 1889 1655 1396 1603 1512 1506
667 865 806 820 890 796 564 1023 937 833 479 224 164 361 623 686 274 325 539 773 504 937 1024 1059 1162 886 1088 663 590 91 48 17 320 260 141 1403 1959 2053 1606 1602 1420 1544 1666
754 858 840 859 887 726 660 576 472 663 430 231 229 495 777 683 285 374 739 863 771 573 905 770 1112 937 893 1082 801 388 34 442 859 687 165 1330 2252 2555 2084 1912 1724 1603 1477
726 657 874 835 860 675 847 345 280 440 502 401 607 764 732 680 392 419 715 941 1156 1073 1026 1055 913 772 990 1024 1341 1147 515 11 476 555 541 1414 2139 2405 2514 2615 1967 1835 2042
554 568 706 816 701 722 627 320 373 593 761 548 741 855 944 613 665 1170 1112 679 1139 937 1385 826 689 606 921 504 332 97 33 1 17 256 652 742 1224 2083 2261 2549 2355 2050 1882
506 470 627 757 807 701 466 533 1009 781 217 412 841 899 1059 1009 838 1056 1054 1146 779 851 561 449 569 451 23 0 0 0 0 1 17 16 267 335 912 840 1804 2282 2744 2487 1716
494 578 709 597 686 1073 564 1140 708 500 787 346 572 1056 985 1181 1241 821 1016 934 1004 829 733 702 229 189 0 0 0 0 0 10 14 16 14 87 524 735 645 1521 1940 2090 1767
425 752 763 603 836 1200 805 1287 771 446 728 772 778 950 1266 1400 1415 843 903 1124 795 566 681 210 197 171 0 0 0 0 0 0 4 0 13 0 138 479 904 819 797 978 1475
409 856 776 850 817 861 1191 1248 1046 796 958 941 759 485 661 1256 1313 968 799 1010 796 421 526 135 2 0 0 0 0 0 11 2 4 4 0 0 183 275 553 652 817 964 1349
806 904 800 778 677 504 996 1068 1109 931 986 1003 762 924 649 1064 1337 1053 663 807 897 804 418 8 0 0 0 0 0 0 0 1 8 0 0 6 31 343 328 401 311 464 233
795 752 709 863 859 649 749 1038 935 905 975 1126 1054 1425 1513 1284 1373 1042 637 795 801 549 169 0 0 0 0 0 0 0 0 0 27 3 0 0 0 6 14 38 111 391 19
577 703 700 1027 1115 935 997 1275 1205 1189 1079 851 889 1083 1424 1422 1357 1175 932 743 335 282 0 0 0 0 0 0 0 0 0 0 0 2 0 0 0 0 0 0 0 259 0
451 597 544 924 1576 1364 1194 1151 1146 833 691 692 832 1124 1082 1358 1261 1102 915 677 105 34 0 0 0 2 1 0 0 6 0 0 0 0 0 0 0 0 0 0 0 10 13
313 657 662 665 1451 1499 1235 1131 1067 860 624 622 692 818 1324 1188 1057 1049 956 695 30 0 0 0 0 0 21 7 2 6 0 0 0 0 0 0 0 0 0 0 0 0 5